N256VM SCEL-SCVM

Flight info

Callsign N256VM
Flight time 0h 29m
Altitude 8000
Route SABLA8 SABLA SABLA1E
Aircraft S22T/L-SDGRY/S

Departure

Time 2026-05-03 21:04
Airport Comodoro Arturo Merino Benítez International Airport (SCEL)

Arrival

Time 2026-05-03 21:33
Airport Viña del Mar Airport (SCVM)
Time Latitude Longitude Altitude Speed Heading
2026-05-03 20:45 -33.39066 -70.79291 1556 ft 0 kts 277°
2026-05-03 20:59 -33.39064 -70.79300 1556 ft 4 kts 301°
2026-05-03 20:59 -33.39034 -70.79264 1561 ft 12 kts 92°
2026-05-03 20:59 -33.39074 -70.79168 1561 ft 12 kts 139°
2026-05-03 20:59 -33.39167 -70.79147 1560 ft 15 kts 176°
2026-05-03 21:00 -33.39275 -70.79143 1560 ft 15 kts 172°
2026-05-03 21:00 -33.39342 -70.79138 1560 ft 5 kts 186°
2026-05-03 21:00 -33.39436 -70.79137 1561 ft 16 kts 178°
2026-05-03 21:00 -33.39501 -70.79175 1561 ft 12 kts 259°
2026-05-03 21:01 -33.39507 -70.79291 1560 ft 16 kts 264°
2026-05-03 21:01 -33.39514 -70.79435 1560 ft 18 kts 268°
2026-05-03 21:01 -33.39519 -70.79562 1558 ft 7 kts 266°
2026-05-03 21:01 -33.39524 -70.79646 1559 ft 13 kts 266°
2026-05-03 21:02 -33.39530 -70.79770 1558 ft 17 kts 267°
2026-05-03 21:02 -33.39533 -70.79913 1558 ft 17 kts 265°
2026-05-03 21:02 -33.39534 -70.79935 1558 ft 0 kts 270°
2026-05-03 21:03 -33.39477 -70.80091 1554 ft 45 kts 326°
2026-05-03 21:03 -33.39272 -70.80235 1555 ft 18 kts 323°
2026-05-03 21:03 -33.39407 -70.80260 1554 ft 51 kts 176°
2026-05-03 21:04 -33.39926 -70.80234 1560 ft 96 kts 178°
2026-05-03 21:04 -33.40671 -70.80196 1796 ft 108 kts 176°
2026-05-03 21:04 -33.41393 -70.80172 2197 ft 108 kts 178°
2026-05-03 21:04 -33.42218 -70.80141 2349 ft 127 kts 176°
2026-05-03 21:05 -33.43126 -70.80061 2550 ft 133 kts 177°
2026-05-03 21:05 -33.44053 -70.79985 2777 ft 136 kts 179°
2026-05-03 21:05 -33.45013 -70.79925 3061 ft 138 kts 180°
2026-05-03 21:05 -33.45987 -70.79877 3318 ft 140 kts 180°
2026-05-03 21:06 -33.46954 -70.79829 3545 ft 141 kts 179°
2026-05-03 21:06 -33.47943 -70.79781 3794 ft 142 kts 179°
2026-05-03 21:06 -33.48931 -70.79737 4040 ft 144 kts 179°
2026-05-03 21:06 -33.49943 -70.79682 4292 ft 145 kts 178°
2026-05-03 21:07 -33.50964 -70.79629 4538 ft 147 kts 178°
2026-05-03 21:07 -33.51977 -70.79652 4769 ft 148 kts 194°
2026-05-03 21:07 -33.52875 -70.80247 5008 ft 149 kts 220°
2026-05-03 21:07 -33.53464 -70.81263 5232 ft 150 kts 251°
2026-05-03 21:08 -33.53692 -70.82474 5474 ft 150 kts 259°
2026-05-03 21:08 -33.53903 -70.83708 5725 ft 151 kts 258°
2026-05-03 21:08 -33.54135 -70.84940 5957 ft 152 kts 258°
2026-05-03 21:08 -33.54378 -70.86178 6190 ft 152 kts 258°
2026-05-03 21:09 -33.54619 -70.87409 6433 ft 153 kts 259°
2026-05-03 21:09 -33.54858 -70.88656 6679 ft 153 kts 259°
2026-05-03 21:09 -33.55096 -70.89907 6934 ft 154 kts 260°
2026-05-03 21:09 -33.55335 -70.91159 7175 ft 154 kts 260°
2026-05-03 21:10 -33.55568 -70.92401 7408 ft 154 kts 260°
2026-05-03 21:10 -33.55802 -70.93658 7644 ft 154 kts 261°
2026-05-03 21:10 -33.56035 -70.94906 7859 ft 154 kts 261°
2026-05-03 21:10 -33.56268 -70.96167 8112 ft 154 kts 261°
2026-05-03 21:11 -33.56500 -70.97418 8371 ft 154 kts 261°
2026-05-03 21:11 -33.56732 -70.98676 8625 ft 154 kts 263°
2026-05-03 21:11 -33.56916 -70.99929 8874 ft 154 kts 264°
2026-05-03 21:11 -33.57104 -71.01189 9128 ft 153 kts 264°
2026-05-03 21:12 -33.57293 -71.02506 9114 ft 168 kts 264°
2026-05-03 21:12 -33.57492 -71.03912 9039 ft 179 kts 264°
2026-05-03 21:12 -33.57710 -71.05485 8561 ft 202 kts 264°
2026-05-03 21:12 -33.57946 -71.07217 8054 ft 215 kts 263°
2026-05-03 21:13 -33.58188 -71.08923 8015 ft 204 kts 263°
2026-05-03 21:13 -33.58434 -71.10571 8012 ft 196 kts 262°
2026-05-03 21:13 -33.58677 -71.12167 8009 ft 192 kts 262°
2026-05-03 21:13 -33.58910 -71.13720 8008 ft 189 kts 262°
2026-05-03 21:14 -33.59138 -71.15276 8004 ft 188 kts 263°
2026-05-03 21:14 -33.59362 -71.16821 8002 ft 187 kts 263°
2026-05-03 21:14 -33.59583 -71.18363 7999 ft 187 kts 263°
2026-05-03 21:14 -33.59802 -71.19886 8002 ft 187 kts 263°
2026-05-03 21:15 -33.60024 -71.21425 8002 ft 187 kts 263°
2026-05-03 21:15 -33.60244 -71.22951 8004 ft 187 kts 263°
2026-05-03 21:15 -33.60466 -71.24488 8006 ft 186 kts 263°
2026-05-03 21:15 -33.60687 -71.26022 8010 ft 186 kts 263°
2026-05-03 21:16 -33.60902 -71.27531 8007 ft 185 kts 263°
2026-05-03 21:16 -33.61119 -71.29060 8007 ft 185 kts 263°
2026-05-03 21:16 -33.61337 -71.30583 8007 ft 185 kts 263°
2026-05-03 21:16 -33.61298 -71.32101 8011 ft 182 kts 286°
2026-05-03 21:17 -33.60818 -71.33472 8010 ft 180 kts 301°
2026-05-03 21:17 -33.60307 -71.34260 8012 ft 180 kts 316°
2026-05-03 21:17 -33.58895 -71.35280 8009 ft 164 kts 339°
2026-05-03 21:17 -33.57877 -71.35530 8005 ft 140 kts 352°
2026-05-03 21:18 -33.56956 -71.35652 8008 ft 127 kts 351°
2026-05-03 21:18 -33.56114 -71.35784 8006 ft 118 kts 350°
2026-05-03 21:18 -33.55298 -71.35922 8019 ft 131 kts 349°
2026-05-03 21:18 -33.54320 -71.36099 8038 ft 151 kts 349°
2026-05-03 21:19 -33.53231 -71.36290 8037 ft 165 kts 349°
2026-05-03 21:19 -33.52074 -71.36486 8036 ft 173 kts 350°
2026-05-03 21:19 -33.50858 -71.36689 8035 ft 178 kts 350°
2026-05-03 21:19 -33.49616 -71.36900 8034 ft 181 kts 350°
2026-05-03 21:20 -33.48357 -71.37109 8028 ft 182 kts 350°
2026-05-03 21:20 -33.47107 -71.37318 8027 ft 184 kts 350°
2026-05-03 21:20 -33.45831 -71.37535 8029 ft 185 kts 350°
2026-05-03 21:20 -33.44569 -71.37747 8027 ft 185 kts 350°
2026-05-03 21:21 -33.43295 -71.37962 8030 ft 184 kts 350°
2026-05-03 21:21 -33.42023 -71.38177 8029 ft 184 kts 350°
2026-05-03 21:21 -33.40753 -71.38391 8030 ft 185 kts 350°
2026-05-03 21:21 -33.39494 -71.38605 8027 ft 184 kts 350°
2026-05-03 21:22 -33.38216 -71.38822 8024 ft 184 kts 350°
2026-05-03 21:22 -33.36952 -71.39034 8022 ft 184 kts 350°
2026-05-03 21:22 -33.35683 -71.39247 8021 ft 184 kts 350°
2026-05-03 21:22 -33.34427 -71.39460 8020 ft 183 kts 350°
2026-05-03 21:23 -33.33157 -71.39675 8021 ft 183 kts 350°
2026-05-03 21:23 -33.31902 -71.39886 8020 ft 184 kts 350°
2026-05-03 21:23 -33.30640 -71.40122 8019 ft 183 kts 348°
2026-05-03 21:23 -33.29379 -71.40373 8017 ft 183 kts 349°
2026-05-03 21:24 -33.28119 -71.40620 8017 ft 183 kts 349°
2026-05-03 21:24 -33.26861 -71.40872 8016 ft 183 kts 349°
2026-05-03 21:24 -33.25620 -71.41124 8017 ft 183 kts 348°
2026-05-03 21:24 -33.24364 -71.41378 8020 ft 183 kts 348°
2026-05-03 21:25 -33.23098 -71.41632 8019 ft 184 kts 348°
2026-05-03 21:25 -33.21836 -71.41887 8018 ft 183 kts 348°
2026-05-03 21:25 -33.20580 -71.42145 8008 ft 183 kts 348°
2026-05-03 21:25 -33.19345 -71.42397 8019 ft 182 kts 348°
2026-05-03 21:26 -33.18085 -71.42650 8009 ft 183 kts 348°
2026-05-03 21:26 -33.16827 -71.42901 8011 ft 183 kts 348°
2026-05-03 21:26 -33.15556 -71.43156 7865 ft 190 kts 348°
2026-05-03 21:26 -33.14234 -71.43424 7635 ft 197 kts 348°
2026-05-03 21:27 -33.12864 -71.43703 7404 ft 201 kts 348°
2026-05-03 21:27 -33.11474 -71.43987 7171 ft 203 kts 349°
2026-05-03 21:27 -33.10089 -71.44269 6936 ft 204 kts 349°
2026-05-03 21:27 -33.08743 -71.44538 6652 ft 186 kts 350°
2026-05-03 21:28 -33.07507 -71.44778 6273 ft 174 kts 350°
2026-05-03 21:28 -33.06342 -71.45010 6024 ft 159 kts 350°
2026-05-03 21:28 -33.05339 -71.45212 6012 ft 136 kts 349°
2026-05-03 21:28 -33.04461 -71.45387 5895 ft 126 kts 349°
2026-05-03 21:29 -33.03537 -71.45576 5491 ft 141 kts 349°
2026-05-03 21:29 -33.02550 -71.45779 5118 ft 149 kts 349°
2026-05-03 21:29 -33.01496 -71.45991 4737 ft 155 kts 350°
2026-05-03 21:29 -33.00434 -71.46204 4357 ft 158 kts 350°
2026-05-03 21:30 -32.99343 -71.46423 4042 ft 156 kts 349°
2026-05-03 21:30 -32.98352 -71.46621 4019 ft 136 kts 349°
2026-05-03 21:30 -32.97469 -71.46793 4006 ft 120 kts 349°
2026-05-03 21:30 -32.96690 -71.46952 3999 ft 104 kts 349°
2026-05-03 21:31 -32.96007 -71.47090 3904 ft 102 kts 349°
2026-05-03 21:31 -32.95333 -71.47450 3629 ft 113 kts 303°
2026-05-03 21:31 -32.95252 -71.48319 3392 ft 110 kts 245°
2026-05-03 21:31 -32.95475 -71.49230 2757 ft 143 kts 283°
2026-05-03 21:32 -32.94766 -71.50268 2149 ft 164 kts 300°
2026-05-03 21:32 -32.94440 -71.51439 1880 ft 147 kts 266°
2026-05-03 21:32 -32.95089 -71.52115 1397 ft 139 kts 163°
2026-05-03 21:32 -32.95538 -71.51232 1085 ft 140 kts 99°
2026-05-03 21:33 -32.95770 -71.50224 1003 ft 119 kts 105°
2026-05-03 21:33 -32.95735 -71.49287 731 ft 114 kts 70°
2026-05-03 21:33 -32.95379 -71.48513 462 ft 94 kts 51°
2026-05-03 21:33 -32.95120 -71.48112 458 ft 39 kts 53°
2026-05-03 21:34 -32.94974 -71.47883 457 ft 22 kts 49°
2026-05-03 21:34 -32.94844 -71.47912 458 ft 21 kts 324°
2026-05-03 21:34 -32.94742 -71.48009 458 ft 11 kts 271°
2026-05-03 21:34 -32.94750 -71.48024 458 ft 0 kts 202°